Hourly Data Report for January 12, 2017

All times are specified in Local Standard Time (LST). Add 1 hour to adjust for Daylight Saving Time where and when it is observed.

ST LEONARD CS
NEW BRUNSWICK

47°09'28.050" N
67°49'55.014" W
245.00 m
810I001
71019
WIY

Download Data

Hourly Data (January 2017)
Hourly Data Report for January 12, 2017
Temp Definition
°C
Dew Point Temp Definition
°C
Rel Hum Definition
%
Wind Dir Definition
10's deg

Wind Spd Definition
km/h
Visibility Definition
km
Stn Press Definition
kPa
Hmdx Definition


Wind Chill Definition


Weather Definition


TIME
00:00 1.3 -3.7 69 15 25   98.90     LegendNANA
01:00 2.1 -3.4 67 15 24   98.77     LegendNANA
02:00 2.8 -3.1 65 14 22   98.74     LegendNANA
03:00 3.3 -3.0 63 15 22   98.68     LegendNANA
04:00 3.4 -2.3 66 15 26   98.60     LegendNANA
05:00 3.4 -2.4 66 16 27   98.52     LegendNANA
06:00 3.2 -1.4 72 17 30   98.45     LegendNANA
07:00 3.2 -0.5 77 17 24   98.42     LegendNANA
08:00 2.9 0.1 82 16 24   98.35     LegendNANA
09:00 3.5 0.2 79 17 27   98.26     LegendNANA
10:00 3.2 0.6 83 15 21   98.15     LegendNANA
11:00 3.0 2.2 95 17 16   98.05     LegendNANA
12:00 3.5 3.1 97 17 19   97.91     LegendNANA
13:00 3.2 3.0 98 18 18   97.83     LegendNANA
14:00 3.6 3.3 98 18 19   97.79     LegendNANA
15:00 4.0 3.7 98 16 12   97.81     LegendNANA
16:00 4.1 3.8 98 15 16   97.82     LegendNANA
17:00 4.0 3.7 98 16 14   97.83     LegendNANA
18:00 4.2 3.9 98 16 18   97.82     LegendNANA
19:00 3.9 3.6 99 17 17   97.77     LegendNANA
20:00 3.7 3.5 99 16 16   97.71     LegendNANA
21:00 4.0 3.8 99 16 17   97.60     LegendNANA
22:00 3.7 3.6 99 18 13   97.59     LegendNANA
23:00 4.0 3.8 99 18 14   97.54     LegendNANA

Notes on Data Quality.

Legend

  • E = Estimated
  • M = Missing
  • NA = Not Available
  • ‡ = Partner data that is not subject to review by the National Climate Archives
Date modified: